This is the latest recevied weather packets stored in our database for station/object K0WXC-1. If no packets are shown the sender has not sent any weather packets the latest 1 day(s).
| Time | Temp. | Humidity | Pressure | Rain* | Wind** | Luminosity | Snow |
|---|---|---|---|---|---|---|---|
| 1778100088 | 14.44° C | 33% | 1003.9 hPa | 0 mm | 2.24 m/s, 283° | - | - |
| 1778100028 | 13.89° C | 34% | 1004.2 hPa | 0 mm | 2.68 m/s, 345° | - | - |
| 1778099848 | 13.89° C | 34% | 1004.2 hPa | 0 mm | 2.68 m/s, 345° | - | - |
| 1778099188 | 13.89° C | 35% | 1004.3 hPa | 0 mm | 1.34 m/s, 17° | - | - |
| 1778099128 | 13.33° C | 36% | 1004.3 hPa | 0 mm | 0.89 m/s, 288° | - | - |
| 1778099068 | 13.33° C | 36% | 1004.3 hPa | 0 mm | 0.89 m/s, 288° | - | - |
| 1778098888 | 13.33° C | 36% | 1004.3 hPa | 0 mm | 0.89 m/s, 288° | - | - |
| 1778098708 | 13.33° C | 35% | 1004.2 hPa | 0 mm | 1.34 m/s, 7° | - | - |
| 1778098588 | 13.33° C | 35% | 1004.2 hPa | 0 mm | 1.34 m/s, 7° | - | - |
| 1778098528 | 13.89° C | 35% | 1004.3 hPa | 0 mm | 2.68 m/s, 285° | - | - |
| 1778098288 | 13.89° C | 35% | 1004.3 hPa | 0 mm | 2.68 m/s, 285° | - | - |
| 1778097928 | 13.33° C | 36% | 1004.5 hPa | 0 mm | 1.79 m/s, 4° | - | - |
| 1778097868 | 13.33° C | 36% | 1004.5 hPa | 0 mm | 1.79 m/s, 4° | - | - |
| 1778097808 | 13.33° C | 36% | 1004.5 hPa | 0 mm | 1.79 m/s, 4° | - | - |
| 1778097688 | 13.33° C | 36% | 1004.5 hPa | 0 mm | 1.79 m/s, 4° | - | - |
| 1778097628 | 13.33° C | 36% | 1004.4 hPa | 0 mm | 2.24 m/s, 292° | - | - |
| 1778097388 | 13.33° C | 36% | 1004.4 hPa | 0 mm | 2.24 m/s, 292° | - | - |
| 1778097148 | 13.33° C | 36% | 1004.6 hPa | 0 mm | 3.13 m/s, 29° | - | - |
| 1778097028 | 13.89° C | 34% | 1004.4 hPa | 0 mm | 1.79 m/s, 294° | - | - |
| 1778096908 | 13.89° C | 34% | 1004.4 hPa | 0 mm | 1.79 m/s, 294° | - | - |
| 1778096788 | 13.89° C | 34% | 1004.4 hPa | 0 mm | 1.79 m/s, 294° | - | - |
| 1778095708 | 13.89° C | 35% | 1004.5 hPa | 0 mm | 0.89 m/s, 44° | - | - |
| 1778095288 | 13.89° C | 34% | 1004.6 hPa | 0 mm | 0.89 m/s, 271° | - | - |
| 1778095108 | 13.89° C | 34% | 1004.7 hPa | 0 mm | 2.24 m/s, 275° | - | - |
| 1778094868 | 13.89° C | 35% | 1004.4 hPa | 0 mm | 2.68 m/s, 307° | - | - |
* Rain latest hour (hover to see other rain measurements)
** Current wind speed in m/s (hover to see current wind gust speed)